Tracking 25995 objects as of 19-Aug-2022
HD Live streaming from Space Station
objects crossing your sky now

STARLINK-4047

Track STARLINK-4047 now!
10-day predictions
STARLINK-4047 is classified as:


NORAD ID: 53243
Int'l Code: 2022-086B
Perigee: 409.4 km
Apogee: 411.0 km
Inclination: 53.2 °
Period: 92.6 minutes
Semi major axis: 6781 km
RCS: Unknown
Launch date: July 24, 2022
Source: United States (US)
Launch site: AIR FORCE EASTERN TEST RANGE (AFETR)
aabbcc
Your satellite tracking list
Your tracking list is empty




NASA's NSSDC Master Catalog

Two Line Element Set (TLE):
1 53243U 22086B   22230.91667824 -.01116321  00000-0 -18299-1 0  9994
2 53243  53.2176 278.1888 0001222  66.7281 193.8266 15.54683225  1302
Source of the keplerian elements: AFSPC